Location: �terpigny
(49.8910°N, 2.9249°E)
Time: 23:34:52
(UTC+00:00)

Cosmos 1908 - Pass Details

Date: 01 June 2022
Orbit: 505 x 524 km, 82.5° (Epoch: 01 July)

Event Time Altitude Azimuth Distance (km) Brightness Sun altitude
Rises 23:33:42 0° 344° (NNW) 2,622 8.3 -17.9°
Reaches altitude 10° 23:35:54 10° 337° (NNW) 1,731 6.9 -17.9°
Maximum altitude 23:39:29 41° 266° (W) 742 3.9 -17.9°
Enters shadow 23:40:29 34° 227° (SW) 861 3.9 -17.9°
